Weather in Lachania

Greece     35°57′59″N   27°51′43″E
temp.,
°C
wind,
m/s
gust,
m/s
humid.,
%
clouds,
%
prec.,
mm/h
press.,
hPa
HPBL,
m
25 february, thu
thu2523:00+16nw912670 0.0 1021426
02:00+15nnw810690 0.0 1021433
05:00+14nw897752 0.0 1020366
08:00+15n456926 0.0 1021287
11:00+17nne23540 0.0 1022367
14:00+17s14600 0.0 1021596
17:00+17sse55600 0.0 1022843
20:00+16ese23590 0.0 1023388
26 february, fri
fri2623:00+15sse01610 0.0 1024172
02:00+15nw11580 0.0 1024201
05:00+16nw23600 0.0 1024492
08:00+16wnw33610 0.0 1023507
11:00+16w33630 0.0 1024503
14:00+15wnw66680 0.0 1022412
17:00+15nw78670 0.0 1022520
20:00+15nw67700 0.0 1021533
27 february, sat
sat2723:00+15nw56690 0.0 1021530
02:00+15nw67770 0.0 1020597
05:00+14wnw67740 0.0 1019605
08:00+15nw67720 0.0 1019681
11:00+16nw66700 0.0 1019716
14:00+15wnw77780 0.0 1017690
17:00+15wnw888023 0.0 1017726
20:00+15nw788019 0.0 1017643
28 february, sun
sun2823:00+15nw78820 0.0 1017656
02:00+15nw677813 0.0 1016700
05:00+15nw567411 0.0 1015667
08:00+15nw78796 0.0 1015666
11:00+16nw67760 0.0 1016704
14:00+16wnw77740 0.0 1015594
17:00+16nw67700 0.0 1015550
20:00+16nnw79680 0.0 1015697
1 march, mon
mon123:00+15nnw810750 0.0 1016440
02:00+14nnw9108040 0.0 1016401
05:00+13nnw10118221 0.0 1016467
08:00+12nnw897410 0.0 1017596
11:00+13nnw77650 0.0 1018734
14:00+14nnw77580 0.0 1018752
17:00+15nnw89500 0.0 1018776
20:00+14nnw910500 0.0 1020951